TimeCST,TemperatureF,Dew PointF,Humidity,Sea Level PressureIn,VisibilityMPH,Wind Direction,Wind SpeedMPH,Gust SpeedMPH,PrecipitationIn,Events,Conditions,WindDirDegrees,DateUTC
12:55 AM,27.5,26.8,97,30.37,10.0,Calm,Calm,-,N/A,,Clear,0,2012-11-15 06:55:00
1:55 AM,25.9,25.0,96,30.37,10.0,Calm,Calm,-,N/A,,Clear,0,2012-11-15 07:55:00
2:55 AM,25.7,24.1,94,30.37,10.0,Calm,Calm,-,N/A,,Clear,0,2012-11-15 08:55:00
3:36 AM,26.6,24.8,93,30.37,9.0,Calm,Calm,-,N/A,,Clear,0,2012-11-15 09:36:00
3:55 AM,25.9,25.2,97,30.36,9.0,Calm,Calm,-,N/A,,Clear,0,2012-11-15 09:55:00
4:01 AM,24.8,24.8,100,30.37,9.0,Calm,Calm,-,N/A,,Clear,0,2012-11-15 10:01:00
4:36 AM,24.8,23.0,93,30.37,8.0,Calm,Calm,-,N/A,,Clear,0,2012-11-15 10:36:00
4:55 AM,25.7,23.5,92,30.37,8.0,Calm,Calm,-,N/A,,Clear,0,2012-11-15 10:55:00
5:52 AM,24.8,24.8,100,30.38,8.0,Calm,Calm,-,N/A,,Partly Cloudy,0,2012-11-15 11:52:00
5:55 AM,25.7,24.6,96,30.38,8.0,Calm,Calm,-,N/A,,Scattered Clouds,0,2012-11-15 11:55:00
6:08 AM,26.6,24.8,93,30.38,9.0,Calm,Calm,-,N/A,,Partly Cloudy,0,2012-11-15 12:08:00
6:27 AM,24.8,24.8,100,30.38,9.0,Calm,Calm,-,N/A,,Clear,0,2012-11-15 12:27:00
6:55 AM,25.3,24.3,96,30.39,8.0,Calm,Calm,-,N/A,,Clear,0,2012-11-15 12:55:00
7:55 AM,28.9,28.2,97,30.41,8.0,Calm,Calm,-,N/A,,Mostly Cloudy,0,2012-11-15 13:55:00
8:55 AM,32.7,31.3,94,30.42,9.0,Calm,Calm,-,N/A,,Mostly Cloudy,0,2012-11-15 14:55:00
9:55 AM,38.5,33.1,81,30.43,10.0,Calm,Calm,-,N/A,,Mostly Cloudy,0,2012-11-15 15:55:00
10:55 AM,43.3,33.3,68,30.41,10.0,Calm,Calm,-,N/A,,Partly Cloudy,0,2012-11-15 16:55:00
11:55 AM,46.2,32.4,58,30.39,10.0,Calm,Calm,-,N/A,,Scattered Clouds,0,2012-11-15 17:55:00
12:55 PM,48.6,30.6,50,30.38,10.0,Calm,Calm,-,N/A,,Clear,0,2012-11-15 18:55:00
1:55 PM,50.2,29.7,45,30.35,9.0,Calm,Calm,-,N/A,,Clear,0,2012-11-15 19:55:00
2:55 PM,51.1,30.0,44,30.35,9.0,Calm,Calm,-,N/A,,Clear,0,2012-11-15 20:55:00
3:55 PM,49.5,29.3,46,30.35,8.0,Calm,Calm,-,N/A,,Clear,0,2012-11-15 21:55:00
4:55 PM,47.1,28.4,48,30.36,6.0,Calm,Calm,-,N/A,,Haze,0,2012-11-15 22:55:00
5:55 PM,39.6,30.4,70,30.37,6.0,Calm,Calm,-,N/A,,Haze,0,2012-11-15 23:55:00
6:55 PM,36.5,30.0,77,30.37,5.0,Calm,Calm,-,N/A,,Haze,0,2012-11-16 00:55:00
7:55 PM,35.6,29.8,80,30.38,6.0,Calm,Calm,-,N/A,,Haze,0,2012-11-16 01:55:00
8:55 PM,34.9,29.3,80,30.38,5.0,Calm,Calm,-,N/A,,Haze,0,2012-11-16 02:55:00
9:55 PM,34.5,30.6,85,30.38,8.0,Calm,Calm,-,N/A,,Clear,0,2012-11-16 03:55:00
10:55 PM,34.3,30.6,86,30.40,6.0,Calm,Calm,-,N/A,,Scattered Clouds,0,2012-11-16 04:55:00
10:56 PM,33.8,30.2,87,30.40,8.0,Calm,Calm,-,N/A,,Scattered Clouds,0,2012-11-16 04:56:00
11:09 PM,33.8,30.2,87,30.40,6.0,Calm,Calm,-,N/A,,Scattered Clouds,0,2012-11-16 05:09:00
11:19 PM,33.8,30.2,87,30.40,5.0,Calm,Calm,-,N/A,,Mostly Cloudy,0,2012-11-16 05:19:00
11:25 PM,33.8,30.2,87,30.40,4.0,Calm,Calm,-,N/A,,Mostly Cloudy,0,2012-11-16 05:25:00
11:55 PM,33.6,30.4,88,30.40,7.0,Calm,Calm,-,N/A,,Scattered Clouds,0,2012-11-16 05:55:00